FW1606 Weather Reports


Display with metric or nautical units.
time (UTC)temp
F
wind
direction
speed
MPH
gust
MPH
rain 1hr
in
rain 24hr
in
rain mn
in
humidity
%
barometer
mb
20260509005540 77 149 2.0 4.0 0.00 0.00 0.00 21 1012.8
20260509004538 78 166 2.0 4.0 0.00 0.00 0.00 20 1012.9
20260509003555 78 151 2.0 4.0 0.00 0.00 0.00 21 1013.0
20260509002532 78 173 3.0 7.0 0.00 0.00 0.00 20 1013.1
20260509001530 79 195 2.0 3.0 0.00 0.00 0.00 20 1013.2
20260509000525 78 189 3.0 8.0 0.00 0.00 0.00 21 1013.3
20260508235542 78 219 3.0 6.0 0.00 0.00 0.00 21 1013.2
20260508234540 77 196 3.0 7.0 0.00 0.00 0.00 21 1013.4
20260508233536 79 193 2.0 9.0 0.00 0.00 0.00 20 1013.4
20260508232554 79 202 2.0 6.0 0.00 0.00 0.00 20 1013.5
20260508231551 79 229 4.0 7.0 0.00 0.00 0.00 20 1013.5
20260508230548 77 234 4.0 8.0 0.00 0.00 0.00 22 1013.4
20260508225525 79 214 2.0 7.0 0.00 0.00 0.00 20 1013.7
20260508224543 80 210 2.0 4.0 0.00 0.00 0.00 20 1013.7
20260508223540 79 203 2.0 4.0 0.00 0.00 0.00 21 1013.9
20260508222539 78 23 2.0 4.0 0.00 0.00 0.00 18 1014.1
20260508221535 79 238 4.0 8.0 0.00 0.00 0.00 20 1014.3
20260508220532 78 225 2.0 3.0 0.00 0.00 0.00 20 1014.6
20260508215528 78 261 3.0 7.0 0.00 0.00 0.00 20 1014.7
20260508214525 77 345 2.0 6.0 0.00 0.00 0.00 21 1014.7
20260508213523 78 230 3.0 7.0 0.00 0.00 0.00 21 1014.8
20260508212540 78 238 1.0 4.0 0.00 0.00 0.00 20 1015.0
20260508211537 77 226 4.0 7.0 0.00 0.00 0.00 21 1015.2
20260508210553 77 228 3.0 8.0 0.00 0.00 0.00 22 1015.2
20260508205551 76 226 4.0 8.0 0.00 0.00 0.00 23 1015.3
20260508204528 76 223 2.0 8.0 0.00 0.00 0.00 24 1015.3
20260508203524 76 242 1.0 3.0 0.00 0.00 0.00 23 1015.5
20260508202542 75 299 3.0 6.0 0.00 0.00 0.00 24 1015.5
20260508201538 76 220 4.0 8.0 0.00 0.00 0.00 27 1015.6
20260508200535 77 246 3.0 8.0 0.00 0.00 0.00 24 1015.8
20260508195532 76 31 2.0 4.0 0.00 0.00 0.00 23 1015.6
20260508194529 76 353 2.0 6.0 0.00 0.00 0.00 24 1015.7
20260508193526 76 12 3.0 7.0 0.00 0.00 0.00 24 1015.8
20260508192523 75 291 2.0 4.0 0.00 0.00 0.00 23 1015.9
20260508191540 74 349 3.0 6.0 0.00 0.00 0.00 26 1016.1
20260508190538 74 242 4.0 8.0 0.00 0.00 0.00 27 1016.0
20260508185535 74 214 2.0 4.0 0.00 0.00 0.00 30 1016.0
20260508184532 74 207 4.0 7.0 0.00 0.00 0.00 29 1016.1
20260508183530 73 293 2.0 6.0 0.00 0.00 0.00 32 1016.2
20260508182527 73 213 4.0 8.0 0.00 0.00 0.00 33 1016.3
20260508181524 72 142 3.0 6.0 0.00 0.00 0.00 33 1016.5
20260508180541 73 230 4.0 9.0 0.00 0.00 0.00 32 1016.5
20260508175539 71 260 2.0 3.0 0.00 0.00 0.00 32 1016.6
20260508174536 71 228 4.0 8.0 0.00 0.00 0.00 34 1016.7
20260508173533 71 228 4.0 6.0 0.00 0.00 0.00 32 1016.7
20260508172550 72 247 2.0 4.0 0.00 0.00 0.00 30 1016.7
20260508171528 71 218 2.0 4.0 0.00 0.00 0.00 32 1016.6
20260508170525 71 246 2.0 3.0 0.00 0.00 0.00 31 1016.6
20260508165543 71 199 1.0 2.0 0.00 0.00 0.00 33 1016.6
20260508164600 71 233 1.0 2.0 0.00 0.00 0.00 34 1016.7
20260508163536 70 236 1.0 2.0 0.00 0.00 0.00 35 1016.8
20260508162534 69 196 2.0 3.0 0.00 0.00 0.00 36 1016.7
20260508161551 68 174 1.0 2.0 0.00 0.00 0.00 37 1016.7
20260508160528 67 91 1.0 2.0 0.00 0.00 0.00 38 1016.6
20260508155526 66 81 2.0 4.0 0.00 0.00 0.00 39 1016.5
20260508154523 65 62 3.0 4.0 0.00 0.00 0.00 40 1016.5
20260508153602 65 142 2.0 4.0 0.00 0.00 0.00 42 1016.4
20260508152618 64 129 2.0 4.0 0.00 0.00 0.00 42 1016.5
20260508151535 63 118 2.0 3.0 0.00 0.00 0.00 43 1016.4
20260508150533 62 141 2.0 4.0 0.00 0.00 0.00 44 1016.5
20260508145530 61 88 2.0 3.0 0.00 0.00 0.00 45 1016.4
20260508144527 60 92 2.0 4.0 0.00 0.00 0.00 46 1016.3
20260508143524 59 112 2.0 3.0 0.00 0.00 0.00 45 1016.3
20260508142601 58 125 2.0 3.0 0.00 0.00 0.00 49 1016.2
20260508141539 56 158 1.0 2.0 0.00 0.00 0.00 51 1016.2
20260508140601 54 187 1.0 2.0 0.00 0.00 0.00 57 1016.1
20260508135533 53 170 1.0 2.0 0.00 0.00 0.00 58 1015.9
20260508134530 53 119 1.0 2.0 0.00 0.00 0.00 57 1015.8
20260508133529 53 100 1.0 2.0 0.00 0.00 0.00 56 1015.6
20260508132524 52 153 1.0 2.0 0.00 0.00 0.00 58 1015.6
20260508131542 50 184 0.0 1.0 0.00 0.00 0.00 59 1015.5
20260508130540 48 185 0.0 1.0 0.00 0.00 0.00 66 1015.3
20260508125538 47 163 0.0 1.0 0.00 0.00 0.00 68 1015.2
20260508124534 45 163 0.0 0.0 0.00 0.00 0.00 73 1015.1
20260508123532 45 194 0.0 1.0 0.00 0.00 0.00 73 1015.1
20260508122529 46 160 0.0 1.0 0.00 0.00 0.00 72 1015.0
20260508121606 46 164 1.0 1.0 0.00 0.00 0.00 73 1015.0
20260508120523 46 170 0.0 1.0 0.00 0.00 0.00 73 1014.8
20260508115540 46 194 0.0 1.0 0.00 0.00 0.00 74 1014.8
20260508114538 46 166 1.0 2.0 0.00 0.00 0.00 73 1014.6
20260508113535 47 199 0.0 2.0 0.00 0.00 0.00 71 1014.5
20260508112532 48 129 0.0 0.0 0.00 0.00 0.00 68 1014.6
20260508111529 49 130 1.0 1.0 0.00 0.00 0.00 68 1014.6
20260508110526 49 130 1.0 2.0 0.00 0.00 0.00 66 1014.5
20260508105544 50 130 0.0 1.0 0.00 0.00 0.00 64 1014.4
20260508104622 49 130 1.0 1.0 0.00 0.00 0.00 64 1014.3
20260508103538 50 158 0.0 1.0 0.00 0.00 0.00 63 1014.3
20260508102535 50 158 0.0 1.0 0.00 0.00 0.00 64 1014.2
20260508101532 49 167 1.0 1.0 0.00 0.00 0.00 65 1014.2
20260508100530 49 200 1.0 1.0 0.00 0.00 0.00 66 1014.1
20260508095526 49 201 0.0 1.0 0.00 0.00 0.00 66 1014.1
20260508094523 49 145 0.0 1.0 0.00 0.00 0.00 66 1014.2
20260508093541 47 156 1.0 1.0 0.00 0.00 0.00 71 1014.0
20260508092538 48 160 1.0 1.0 0.00 0.00 0.00 70 1014.0
20260508091535 50 210 2.0 4.0 0.00 0.00 0.00 67 1014.3
20260508090533 50 124 1.0 2.0 0.00 0.00 0.00 65 1014.0
20260508085529 50 114 1.0 1.0 0.00 0.00 0.00 65 1014.1
20260508084527 50 120 1.0 2.0 0.00 0.00 0.00 65 1014.1
20260508083524 50 131 0.0 1.0 0.00 0.00 0.00 64 1014.1
20260508082541 51 130 0.0 1.0 0.00 0.00 0.00 62 1014.2
20260508081558 51 123 1.0 1.0 0.00 0.00 0.00 63 1014.2
20260508080535 51 109 1.0 1.0 0.00 0.00 0.00 61 1014.2
20260508075532 51 142 1.0 1.0 0.00 0.00 0.00 62 1014.2
20260508074529 52 143 0.0 1.0 0.00 0.00 0.00 60 1014.1
20260508073526 53 142 0.0 1.0 0.00 0.00 0.00 58 1014.1
20260508072523 54 142 1.0 1.0 0.00 0.00 0.00 55 1014.1
20260508071540 54 143 1.0 2.0 0.00 0.00 0.00 55 1014.0
20260508070538 54 143 1.0 1.0 0.00 0.00 0.00 55 1013.9
20260508065535 55 143 1.0 1.0 0.00 0.00 0.00 54 1014.0
20260508064553 55 143 1.0 1.0 0.00 0.00 0.00 55 1014.0
20260508063529 55 143 0.0 1.0 0.00 0.00 0.00 55 1013.9
20260508062527 55 143 0.0 1.0 0.00 0.00 0.00 56 1013.8
20260508061546 56 193 1.0 1.0 0.00 0.00 0.00 56 1013.8
20260508060542 56 214 0.0 1.0 0.00 0.00 0.00 53 1013.7
20260508055539 58 231 1.0 4.0 0.00 0.00 0.00 51 1013.7
20260508054539 59 349 0.0 0.0 0.00 0.00 0.00 49 1013.7
20260508053554 58 350 1.0 1.0 0.00 0.00 0.00 48 1013.7
20260508052531 59 0.0 0.0 0.00 0.00 0.00 48 1013.7
20260508051528 57 350 1.0 1.0 0.00 0.00 0.00 51 1013.7
20260508050526 58 349 0.0 1.0 0.00 0.00 0.00 52 1013.6
20260508045522 58 349 1.0 1.0 0.00 0.00 0.00 51 1013.6
20260508044540 60 348 1.0 1.0 0.00 0.00 0.00 48 1013.5
20260508043537 60 347 1.0 1.0 0.00 0.00 0.00 48 1013.5
20260508042537 62 90 1.0 2.0 0.00 0.00 0.00 44 1013.5
20260508041551 62 94 1.0 1.0 0.00 0.00 0.00 43 1013.4
20260508040529 62 93 1.0 1.0 0.00 0.00 0.00 42 1013.2
20260508035526 63 93 1.0 1.0 0.00 0.00 0.00 42 1013.2
20260508034522 63 90 1.0 2.0 0.00 0.00 0.00 42 1013.2
20260508033539 62 73 2.0 3.0 0.00 0.00 0.00 44 1013.0
20260508032537 64 231 1.0 1.0 0.00 0.00 0.00 41 1012.8
20260508031534 65 231 0.0 1.0 0.00 0.00 0.00 40 1012.6
20260508030531 65 231 0.0 0.0 0.00 0.00 0.00 38 1012.5
20260508025529 66 231 0.0 0.0 0.00 0.00 0.00 37 1012.5
20260508024525 67 231 0.0 0.0 0.00 0.00 0.00 38 1012.4
20260508023522 68 231 0.0 0.0 0.00 0.00 0.00 35 1012.4
20260508022539 70 231 0.0 1.0 0.00 0.00 0.00 33 1012.4
20260508021557 70 233 1.0 2.0 0.00 0.00 0.00 33 1012.3
20260508020555 71 233 1.0 2.0 0.00 0.00 0.00 33 1012.3
20260508015531 72 232 3.0 3.0 0.00 0.00 0.00 32 1012.4
20260508014527 72 232 2.0 3.0 0.00 0.00 0.00 31 1012.3
20260508013525 73 226 3.0 4.0 0.00 0.00 0.00 29 1012.5
20260508012542 74 235 2.0 3.0 0.00 0.00 0.00 29 1012.5
20260508011539 74 229 3.0 6.0 0.00 0.00 0.00 27 1012.4
20260508010617 74 221 3.0 6.0 0.00 0.00 0.00 27 1012.5